TimeMST,TemperatureF,Dew PointF,Humidity,Sea Level PressureIn,VisibilityMPH,Wind Direction,Wind SpeedMPH,Gust SpeedMPH,PrecipitationIn,Events,Conditions,WindDirDegrees,DateUTC
12:15 AM,30.2,24.8,80,30.00,10.0,South,16.1,-,N/A,,Overcast,170,2014-01-11 07:15:00
12:35 AM,32.0,24.8,75,30.01,10.0,South,12.7,-,N/A,,Overcast,190,2014-01-11 07:35:00
12:55 AM,32.0,24.8,75,30.01,10.0,South,10.4,-,N/A,,Overcast,190,2014-01-11 07:55:00
1:15 AM,30.2,26.6,86,30.01,10.0,South,13.8,17.3,N/A,,Overcast,170,2014-01-11 08:15:00
1:35 AM,32.0,26.6,80,30.02,10.0,South,8.1,-,N/A,,Overcast,190,2014-01-11 08:35:00
1:55 AM,32.0,26.6,80,30.02,10.0,South,11.5,21.9,N/A,,Overcast,170,2014-01-11 08:55:00
2:15 AM,33.8,26.6,75,30.03,10.0,South,11.5,17.3,N/A,,Overcast,190,2014-01-11 09:15:00
2:35 AM,33.8,26.6,75,30.03,9.0,South,10.4,-,N/A,,Overcast,190,2014-01-11 09:35:00
2:55 AM,32.0,28.4,87,30.03,7.0,SW,6.9,-,N/A,,Overcast,220,2014-01-11 09:55:00
3:15 AM,32.0,28.4,87,30.02,7.0,SSW,3.5,-,N/A,,Overcast,210,2014-01-11 10:15:00
3:35 AM,32.0,28.4,87,30.01,-9999.0,South,5.8,-,N/A,,Overcast,180,2014-01-11 10:35:00
3:55 AM,32.0,30.2,93,30.01,5.0,SSE,8.1,-,N/A,,Overcast,160,2014-01-11 10:55:00
4:15 AM,32.0,30.2,93,30.00,7.0,ESE,8.1,-,N/A,,Overcast,110,2014-01-11 11:15:00
4:35 AM,32.0,30.2,93,30.00,10.0,SSW,4.6,-,N/A,,Overcast,200,2014-01-11 11:35:00
4:55 AM,33.8,30.2,87,29.99,-9999.0,SSW,8.1,-,N/A,,Overcast,210,2014-01-11 11:55:00
5:15 AM,33.8,30.2,87,30.00,9.0,South,16.1,-,N/A,,Overcast,190,2014-01-11 12:15:00
5:35 AM,33.8,30.2,87,29.99,7.0,South,12.7,-,N/A,,Overcast,190,2014-01-11 12:35:00
5:55 AM,35.6,30.2,81,29.99,10.0,South,15.0,-,N/A,,Overcast,190,2014-01-11 12:55:00
6:15 AM,33.8,30.2,87,29.99,5.0,SSW,12.7,19.6,N/A,,Overcast,200,2014-01-11 13:15:00
6:35 AM,33.8,30.2,87,29.98,4.0,South,16.1,-,N/A,,Overcast,170,2014-01-11 13:35:00
6:51 AM,33.8,30.2,87,29.97,6.0,South,15.0,-,N/A,Snow,Light Snow,180,2014-01-11 13:51:00
7:51 AM,33.8,30.2,87,29.95,5.0,SSW,8.1,-,N/A,Snow,Light Snow,200,2014-01-11 14:51:00
8:30 AM,33.8,32.0,93,29.95,1.5,South,16.1,25.3,N/A,Snow,Light Snow,170,2014-01-11 15:30:00
8:51 AM,33.8,32.0,93,29.95,2.0,South,16.1,-,N/A,Snow,Light Snow,180,2014-01-11 15:51:00
9:04 AM,33.8,32.0,93,29.95,3.0,South,16.1,21.9,N/A,Snow,Light Snow,190,2014-01-11 16:04:00
9:22 AM,33.8,32.0,93,29.99,7.0,South,16.1,21.9,N/A,,Overcast,190,2014-01-11 16:22:00
10:02 AM,35.6,32.0,87,29.94,6.0,South,21.9,26.5,N/A,Snow,Light Snow,170,2014-01-11 17:02:00
11:42 AM,35.6,32.0,87,29.87,10.0,South,21.9,31.1,N/A,,Overcast,170,2014-01-11 18:42:00
12:53 PM,35.6,33.8,93,29.82,10.0,South,27.6,-,N/A,,Overcast,170,2014-01-11 19:53:00
1:56 PM,35.6,32.0,87,29.79,5.0,South,17.3,23.0,N/A,Snow,Light Snow,190,2014-01-11 20:56:00
2:51 PM,37.4,32.0,81,29.73,4.0,South,18.4,26.5,N/A,Snow,Light Snow,170,2014-01-11 21:51:00
3:54 PM,33.8,33.8,100,29.70,3.0,SSE,24.2,31.1,N/A,Snow,Light Snow,160,2014-01-11 22:54:00
4:51 PM,33.8,33.8,100,29.67,5.0,South,24.2,31.1,N/A,Snow,Light Snow,170,2014-01-11 23:51:00
5:53 PM,33.8,33.8,100,29.66,3.0,SSE,21.9,29.9,N/A,Snow,Light Snow,160,2014-01-12 00:53:00
6:51 PM,33.8,32.0,93,29.61,7.0,SSE,25.3,31.1,N/A,Snow,Light Snow,160,2014-01-12 01:51:00
7:51 PM,33.8,33.8,100,29.56,3.0,SSE,28.8,33.4,N/A,Snow,Light Snow,160,2014-01-12 02:51:00
8:15 PM,33.8,33.8,100,29.58,1.5,South,16.1,-,N/A,Snow,Light Snow,180,2014-01-12 03:15:00
9:15 PM,32.0,32.0,100,29.64,1.2,SSW,20.7,35.7,N/A,,Overcast,210,2014-01-12 04:15:00
9:35 PM,30.2,30.2,100,29.64,0.5,SW,24.2,31.1,N/A,,Overcast,220,2014-01-12 04:35:00
9:55 PM,30.2,28.4,93,29.62,6.0,SSW,18.4,24.2,0.01,,Overcast,210,2014-01-12 04:55:00
10:15 PM,32.0,28.4,87,29.63,4.0,SSW,20.7,32.2,N/A,,Overcast,210,2014-01-12 05:15:00
10:35 PM,30.2,26.6,86,29.62,9.0,South,18.4,27.6,N/A,,Mostly Cloudy,190,2014-01-12 05:35:00
10:55 PM,30.2,26.6,86,29.62,10.0,SSW,17.3,27.6,N/A,,Overcast,200,2014-01-12 05:55:00
11:15 PM,30.2,24.8,80,29.62,8.0,SW,18.4,33.4,N/A,,Overcast,220,2014-01-12 06:15:00
11:35 PM,30.2,24.8,80,29.62,9.0,SW,21.9,32.2,N/A,,Overcast,230,2014-01-12 06:35:00
11:55 PM,30.2,24.8,80,29.62,9.0,SW,24.2,27.6,N/A,,Overcast,220,2014-01-12 06:55:00